EW1617 Weather Reports


Display with metric or nautical units.
time (UTC)temp
F
wind
direction
speed
MPH
gust
MPH
rain 1hr
in
rain 24hr
in
rain mn
in
humidity
%
barometer
mb
20260507165007 56 335 2.0 5.0 0.00 0.00 0.00 81 1021.3
20260507164507 56 0 1.0 4.0 0.00 0.00 0.00 81 1021.3
20260507164007 55 159 4.0 6.0 0.00 0.00 0.00 83 1021.3
20260507163507 55 90 4.0 6.0 0.00 0.00 0.00 83 1021.3
20260507163007 55 153 4.0 6.0 0.00 0.00 0.00 84 1021.3
20260507162507 55 117 3.0 6.0 0.00 0.00 0.00 84 1021.3
20260507162006 54 298 2.0 5.0 0.00 0.00 0.00 85 1021.3
20260507161507 54 298 3.0 5.0 0.00 0.00 0.00 86 1021.3
20260507161007 54 337 1.0 6.0 0.00 0.00 0.00 88 1021.3
20260507160507 54 226 4.0 7.0 0.00 0.00 0.00 86 1021.3
20260507160007 53 234 2.0 6.0 0.00 0.00 0.00 88 1021.3
20260507155506 53 135 6.0 8.0 0.00 0.00 0.00 89 1021.3
20260507155007 53 207 5.0 7.0 0.00 0.00 0.00 88 1021.4
20260507154507 53 207 6.0 7.0 0.00 0.00 0.00 88 1021.7
20260507154009 53 198 3.0 7.0 0.00 0.00 0.00 88 1021.7
20260507153507 53 153 3.0 5.0 0.00 0.00 0.00 88 1021.7
20260507153008 53 189 2.0 5.0 0.00 0.00 0.00 88 1021.7
20260507152507 53 270 0.0 1.0 0.00 0.00 0.00 90 1021.5
20260507152007 53 243 2.0 6.0 0.00 0.00 0.00 90 1021.4
20260507151507 53 0 0.0 2.0 0.00 0.00 0.00 90 1021.5
20260507151006 53 189 1.0 5.0 0.00 0.00 0.00 91 1021.4
20260507150507 53 225 0.0 0.0 0.00 0.00 0.00 91 1021.3
20260507150007 52 180 1.0 3.0 0.00 0.00 0.00 92 1021.6
20260507145507 52 0 1.0 3.0 0.00 0.00 0.00 92 1021.4
20260507145007 52 0 1.0 6.0 0.00 0.00 0.00 92 1021.3
20260507144507 52 162 5.0 7.0 0.00 0.00 0.00 91 1021.3
20260507144007 52 155 3.0 5.0 0.00 0.00 0.00 93 1021.3
20260507143507 52 365 1.0 3.0 0.00 0.00 0.00 93 1021.3
20260507143008 52 270 1.0 3.0 0.00 0.00 0.00 93 1021.3
20260507142507 52 279 1.0 5.0 0.00 0.00 0.00 93 1021.3
20260507142007 52 315 0.0 0.0 0.00 0.00 0.00 93 1021.3
20260507141507 52 335 1.0 4.0 0.00 0.00 0.00 93 1021.3
20260507141007 52 279 1.0 2.0 0.00 0.00 0.00 93 1021.3
20260507140507 52 270 0.0 1.0 0.00 0.00 0.00 93 1021.3
20260507140007 52 270 0.0 0.0 0.00 0.00 0.00 93 1021.3
20260507135507 52 270 0.0 0.0 0.00 0.00 0.00 93 1021.3
20260507135006 52 270 0.0 0.0 0.00 0.00 0.00 93 1021.0
20260507134507 52 270 0.0 0.0 0.00 0.00 0.00 93 1021.0
20260507134007 51 270 0.0 1.0 0.00 0.00 0.00 93 1021.0
20260507133507 51 270 0.0 1.0 0.00 0.00 0.00 93 1021.0
20260507133008 51 270 0.0 2.0 0.00 0.00 0.00 93 1021.0
20260507132507 51 270 0.0 0.0 0.00 0.00 0.00 93 1021.0
20260507132006 51 270 0.0 0.0 0.00 0.00 0.00 93 1021.0
20260507131507 51 270 0.0 0.0 0.00 0.00 0.00 93 1021.0
20260507131007 51 270 0.0 0.0 0.00 0.00 0.00 93 1021.0
20260507130507 52 270 0.0 0.0 0.00 0.00 0.00 93 1021.0
20260507130006 52 270 0.0 0.0 0.00 0.00 0.00 93 1021.0
20260507125507 52 270 0.0 0.0 0.00 0.00 0.00 93 1021.0
20260507125007 52 270 0.0 0.0 0.00 0.00 0.00 93 1021.0
20260507124507 52 270 0.0 0.0 0.00 0.00 0.00 93 1021.0
20260507124007 52 270 0.0 0.0 0.00 0.00 0.00 93 1021.0
20260507123507 52 270 0.0 0.0 0.00 0.00 0.00 93 1021.0
20260507123007 52 135 0.0 1.0 0.00 0.00 0.00 93 1021.0
20260507122507 52 0 0.0 0.0 0.00 0.00 0.00 93 1021.0
20260507122007 52 0 0.0 0.0 0.00 0.00 0.00 93 1021.0
20260507121506 52 63 0.0 2.0 0.00 0.00 0.00 93 1021.0
20260507121007 52 315 0.0 2.0 0.00 0.00 0.00 93 1021.0
20260507120507 52 315 0.0 0.0 0.00 0.00 0.00 93 1021.0
20260507120007 52 315 3.0 5.0 0.00 0.00 0.00 93 1021.0
20260507115508 52 0 5.0 5.0 0.00 0.00 0.00 93 1021.3
20260507115006 52 315 0.0 0.0 0.00 0.00 0.00 93 1021.3
20260507114507 52 315 0.0 2.0 0.00 0.00 0.00 93 1021.3
20260507114007 53 225 1.0 2.0 0.00 0.00 0.00 93 1021.3
20260507113507 53 117 3.0 6.0 0.00 0.00 0.00 93 1021.3
20260507113007 53 0 0.0 1.0 0.00 0.00 0.00 94 1021.3
20260507112507 53 0 1.0 2.0 0.00 0.00 0.00 94 1021.3
20260507112007 53 0 0.0 0.0 0.00 0.00 0.00 94 1021.3
20260507111507 53 54 1.0 3.0 0.00 0.00 0.00 93 1021.3
20260507111007 53 279 4.0 8.0 0.00 0.00 0.00 93 1021.3
20260507110507 53 181 2.0 4.0 0.00 0.00 0.00 94 1021.3
20260507110007 53 227 4.0 6.0 0.00 0.00 0.00 94 1021.3
20260507105507 53 126 3.0 7.0 0.00 0.00 0.00 94 1021.3
20260507105007 53 170 4.0 6.0 0.00 0.00 0.00 94 1021.3
20260507104507 53 243 5.0 6.0 0.00 0.00 0.00 94 1021.3
20260507104007 53 135 5.0 6.0 0.00 0.00 0.00 93 1021.3
20260507103507 53 234 2.0 6.0 0.00 0.00 0.00 94 1021.3
20260507103006 53 225 1.0 5.0 0.00 0.00 0.00 94 1021.3
20260507102507 53 317 4.0 6.0 0.00 0.00 0.00 94 1021.3
20260507102007 53 297 2.0 6.0 0.00 0.00 0.00 94 1021.3
20260507101507 53 144 4.0 6.0 0.00 0.00 0.00 94 1021.5
20260507101007 54 0 1.0 5.0 0.00 0.00 0.00 94 1021.7
20260507100507 54 198 3.0 5.0 0.00 0.00 0.00 94 1021.7
20260507100007 54 270 0.0 1.0 0.00 0.00 0.00 94 1021.7
20260507095507 54 153 2.0 5.0 0.00 0.00 0.00 94 1021.7
20260507095006 54 325 1.0 3.0 0.00 0.00 0.00 94 1021.7
20260507094507 54 252 1.0 3.0 0.00 0.00 0.00 94 1021.7
20260507094007 54 0 0.0 0.0 0.00 0.00 0.00 94 1021.7
20260507093507 54 0 1.0 3.0 0.00 0.00 0.00 94 1021.7
20260507093007 54 293 4.0 6.0 0.00 0.00 0.00 94 1021.7
20260507092506 54 315 3.0 5.0 0.00 0.00 0.00 94 1021.7
20260507092007 54 171 3.0 6.0 0.00 0.00 0.00 93 1021.7
20260507091507 54 181 5.0 8.0 0.00 0.00 0.00 93 1021.9
20260507091007 54 171 3.0 6.0 0.00 0.00 0.00 93 1022.0
20260507090507 54 181 3.0 6.0 0.00 0.00 0.00 93 1022.0
20260507090008 54 243 4.0 7.0 0.00 0.00 0.00 93 1022.0
20260507085506 54 234 3.0 5.0 0.00 0.00 0.00 93 1022.0
20260507085007 54 135 5.0 6.0 0.00 0.00 0.00 93 1022.0
20260507084508 54 225 5.0 7.0 0.00 0.00 0.00 93 1022.0
20260507084007 54 153 5.0 7.0 0.00 0.00 0.00 93 1022.0
20260507083506 54 270 4.0 5.0 0.00 0.00 0.00 93 1022.0
20260507083007 54 72 5.0 6.0 0.00 0.00 0.00 93 1022.0
20260507082507 54 190 3.0 5.0 0.00 0.00 0.00 93 1022.0
20260507082007 54 270 4.0 7.0 0.00 0.00 0.00 93 1022.0
20260507081507 54 262 3.0 5.0 0.00 0.00 0.00 94 1022.0
20260507081006 54 253 4.0 5.0 0.00 0.00 0.00 94 1022.0
20260507080508 54 158 4.0 5.0 0.00 0.00 0.00 93 1021.9
20260507080006 54 162 6.0 8.0 0.00 0.00 0.00 94 1022.0
20260507075507 54 216 5.0 8.0 0.00 0.00 0.00 94 1022.0
20260507075007 54 271 3.0 6.0 0.00 0.00 0.00 94 1022.0
20260507074507 54 293 3.0 5.0 0.00 0.00 0.00 94 1022.0
20260507074007 54 270 1.0 3.0 0.00 0.00 0.00 94 1022.0
20260507073507 54 326 3.0 5.0 0.00 0.00 0.00 94 1022.0
20260507073006 54 297 4.0 5.0 0.00 0.00 0.00 94 1021.9
20260507072507 54 279 4.0 5.0 0.00 0.00 0.00 94 1021.7
20260507072008 54 259 3.0 5.0 0.00 0.00 0.00 94 1021.7
20260507071506 54 216 3.0 6.0 0.00 0.00 0.00 94 1021.7
20260507071007 54 0 3.0 6.0 0.00 0.00 0.00 94 1021.7
20260507070508 54 18 2.0 5.0 0.00 0.00 0.00 94 1021.7
20260507070010 54 117 3.0 5.0 0.00 0.00 0.00 94 1021.7
20260507065507 54 249 3.0 4.0 0.00 0.00 0.00 94 1021.7
20260507065007 55 328 6.0 7.0 0.00 0.00 0.00 94 1021.7
20260507064506 55 193 6.0 8.0 0.00 0.00 0.00 94 1021.7
20260507064007 55 234 6.0 7.0 0.00 0.00 0.00 94 1021.7
20260507063507 55 279 5.0 7.0 0.00 0.00 0.00 94 1021.7
20260507063007 55 135 4.0 7.0 0.00 0.00 0.00 94 1021.7
20260507062507 55 189 2.0 8.0 0.00 0.00 0.00 94 1021.7
20260507062008 55 200 3.0 6.0 0.00 0.00 0.00 94 1021.7
20260507061507 55 300 4.0 6.0 0.00 0.00 0.00 94 1022.0
20260507061007 55 162 3.0 5.0 0.00 0.00 0.00 94 1022.0
20260507060507 55 234 5.0 7.0 0.00 0.00 0.00 94 1021.7
20260507060007 55 180 3.0 6.0 0.00 0.00 0.00 94 1021.7
20260507055507 55 279 3.0 6.0 0.00 0.00 0.00 94 1021.9
20260507055007 55 135 1.0 5.0 0.00 0.00 0.00 94 1021.7
20260507054507 55 90 1.0 2.0 0.00 0.00 0.00 94 1021.7
20260507054007 56 146 1.0 5.0 0.00 0.00 0.00 94 1021.7
20260507053507 56 293 3.0 5.0 0.00 0.00 0.00 94 1021.8
20260507053007 56 315 2.0 4.0 0.00 0.00 0.00 94 1021.7
20260507052507 56 225 0.0 1.0 0.00 0.00 0.00 94 1021.7
20260507052007 56 225 1.0 2.0 0.00 0.00 0.00 94 1021.7
20260507051507 56 279 2.0 5.0 0.00 0.00 0.00 93 1021.7
20260507051007 56 279 1.0 5.0 0.00 0.00 0.00 93 1021.7
20260507050507 56 225 2.0 4.0 0.00 0.00 0.00 93 1021.7
20260507050007 57 117 3.0 7.0 0.00 0.00 0.00 93 1021.7
20260507045506 57 135 2.0 7.0 0.00 0.00 0.00 93 1021.7
20260507045007 57 306 2.0 5.0 0.00 0.00 0.00 93 1021.7
20260507044507 57 54 2.0 4.0 0.00 0.00 0.00 93 1021.7
20260507044007 57 54 3.0 5.0 0.00 0.00 0.00 93 1021.7
20260507043507 57 180 3.0 5.0 0.00 0.00 0.00 93 1021.7
20260507043007 57 108 2.0 3.0 0.00 0.00 0.00 93 1021.7
20260507042506 57 180 3.0 5.0 0.00 0.00 0.00 93 1021.7
20260507042008 58 261 1.0 3.0 0.00 0.00 0.00 93 1021.7
20260507041507 58 99 3.0 6.0 0.00 0.00 0.00 93 1021.6
20260507041007 58 153 7.0 8.0 0.00 0.00 0.00 93 1021.4
20260507040507 58 245 3.0 5.0 0.00 0.00 0.00 93 1021.3
20260507040007 58 198 4.0 9.0 0.00 0.00 0.00 92 1021.3
20260507035507 58 248 7.0 9.0 0.00 0.00 0.00 92 1021.3
20260507035007 59 163 4.0 6.0 0.00 0.00 0.00 92 1021.3
20260507034507 59 272 3.0 6.0 0.00 0.00 0.00 92 1021.1
20260507034007 59 90 2.0 5.0 0.00 0.00 0.00 92 1021.0
20260507033507 59 207 3.0 7.0 0.00 0.00 0.00 92 1021.0
20260507033007 59 252 5.0 7.0 0.00 0.00 0.00 92 1021.0
20260507032507 60 226 4.0 7.0 0.00 0.00 0.00 92 1020.9
20260507032007 60 225 2.0 3.0 0.00 0.00 0.00 92 1020.7
20260507031507 60 252 3.0 6.0 0.00 0.00 0.00 92 1020.7
20260507031007 60 307 3.0 6.0 0.00 0.00 0.00 92 1020.7
20260507030507 60 181 2.0 5.0 0.00 0.00 0.00 92 1020.7
20260507030006 60 99 2.0 5.0 0.00 0.00 0.00 92 1020.6
20260507025507 61 180 5.0 7.0 0.00 0.00 0.00 92 1020.3
20260507025007 61 198 4.0 8.0 0.00 0.00 0.00 91 1020.3
20260507024507 61 272 5.0 8.0 0.00 0.00 0.00 91 1020.3
20260507024007 61 316 4.0 6.0 0.00 0.00 0.00 90 1020.3
20260507023507 62 288 3.0 5.0 0.00 0.00 0.00 89 1020.3
20260507023006 62 217 3.0 5.0 0.00 0.00 0.00 88 1020.3
20260507022507 62 154 4.0 5.0 0.00 0.00 0.00 88 1020.3
20260507022007 62 81 3.0 6.0 0.00 0.00 0.00 87 1020.3
20260507021507 63 135 2.0 4.0 0.00 0.00 0.00 88 1020.3
20260507021007 63 315 2.0 7.0 0.00 0.00 0.00 88 1020.3
20260507020507 63 297 3.0 6.0 0.00 0.00 0.00 87 1020.3
20260507020007 63 198 4.0 6.0 0.00 0.00 0.00 85 1020.3
20260507015507 64 207 2.0 6.0 0.00 0.00 0.00 84 1020.3
20260507015006 64 100 5.0 6.0 0.00 0.00 0.00 84 1020.3
20260507014507 64 146 5.0 7.0 0.00 0.00 0.00 84 1020.3
20260507014007 64 216 5.0 7.0 0.00 0.00 0.00 84 1020.3
20260507013507 64 208 7.0 9.0 0.00 0.00 0.00 84 1020.3
20260507013007 64 169 7.0 8.0 0.00 0.00 0.00 83 1020.3
20260507012507 65 113 7.0 8.0 0.00 0.00 0.00 80 1020.3
20260507012007 66 248 7.0 8.0 0.00 0.00 0.00 79 1020.3
20260507011507 66 170 6.0 7.0 0.00 0.00 0.00 77 1020.3
20260507010507 67 253 5.0 6.0 0.00 0.00 0.00 77 1020.3
20260507010007 67 215 4.0 8.0 0.00 0.00 0.00 75 1020.3
20260507005507 67 225 6.0 8.0 0.00 0.00 0.00 74 1020.3
20260507005008 67 315 8.0 8.0 0.00 0.00 0.00 75 1020.3
20260507004507 68 225 7.0 10.0 0.00 0.00 0.00 71 1020.2
20260507004007 68 60 5.0 8.0 0.00 0.00 0.00 71 1020.0
20260507003507 68 158 5.0 8.0 0.00 0.00 0.00 74 1020.0
20260507003007 68 243 5.0 6.0 0.00 0.00 0.00 75 1020.0
20260507002507 68 288 2.0 5.0 0.00 0.00 0.00 76 1020.0
20260507002007 68 261 3.0 5.0 0.00 0.00 0.00 79 1020.0
20260507001507 68 79 4.0 6.0 0.00 0.00 0.00 78 1020.0
20260507001007 68 340 6.0 7.0 0.00 0.00 0.00 79 1020.0
20260507000507 68 243 5.0 6.0 0.00 0.00 0.00 78 1020.0
20260507000007 69 248 6.0 8.0 0.00 0.00 0.00 77 1020.0
20260506235507 69 158 3.0 6.0 0.00 0.00 0.00 75 1020.0
20260506234007 70 81 0.0 4.0 0.00 0.00 0.00 75 1019.6
20260506233506 70 79 3.0 6.0 0.00 0.00 0.00 73 1019.6
20260506233008 70 0 0.0 0.0 0.00 0.00 0.00 73 1019.8
20260506231507 72 165 2.0 3.0 0.00 0.00 0.00 67 1019.6
20260506231007 72 180 0.0 5.0 0.00 0.00 0.00 70 1020.0
20260506230507 72 180 3.0 6.0 0.00 0.00 0.00 67 1020.0
20260506230006 71 90 5.0 6.0 0.00 0.00 0.00 67 1020.0
20260506225506 71 54 2.0 5.0 0.00 0.00 0.00 67 1020.0
20260506225007 71 245 2.0 5.0 0.00 0.00 0.00 68 1020.0
20260506224508 71 135 0.0 1.0 0.00 0.00 0.00 70 1020.0
20260506224007 71 135 1.0 4.0 0.00 0.00 0.00 70 1020.3
20260506223507 69 234 1.0 4.0 0.00 0.00 0.00 75 1020.3
20260506223007 68 315 1.0 5.0 0.00 0.00 0.00 79 1020.3
20260506222507 68 315 0.0 0.0 0.00 0.00 0.00 80 1020.3
20260506222007 68 315 1.0 3.0 0.00 0.00 0.00 80 1020.3
20260506221508 68 345 1.0 3.0 0.00 0.00 0.00 78 1020.3
20260506221007 69 327 1.0 2.0 0.00 0.00 0.00 77 1020.5
20260506220507 69 365 0.0 0.0 0.00 0.00 0.00 75 1020.3
20260506220006 70 365 0.0 0.0 0.00 0.00 0.00 73 1020.3
20260506215507 70 365 1.0 5.0 0.00 0.00 0.00 71 1020.3
20260506215007 71 117 6.0 7.0 0.00 0.00 0.00 69 1020.3
20260506214507 71 217 4.0 6.0 0.00 0.00 0.00 71 1020.3
20260506214006 69 180 0.0 1.0 0.00 0.00 0.00 76 1020.3
20260506213507 69 180 4.0 5.0 0.00 0.00 0.00 78 1020.3
20260506213007 68 252 5.0 8.0 0.00 0.00 0.00 79 1020.5
20260506212507 68 135 6.0 8.0 0.00 0.00 0.00 77 1020.7
20260506212007 68 144 2.0 5.0 0.00 0.00 0.00 82 1020.7
20260506211507 67 162 4.0 6.0 0.00 0.00 0.00 82 1020.7
20260506211007 67 252 0.0 0.0 0.00 0.00 0.00 85 1020.7
20260506210507 67 315 0.0 1.0 0.00 0.00 0.00 86 1021.0
20260506210007 67 243 0.0 4.0 0.00 0.00 0.00 86 1021.0
20260506205507 67 144 1.0 4.0 0.00 0.00 0.00 85 1021.0
20260506205007 67 126 0.0 1.0 0.00 0.00 0.00 83 1020.9
20260506204507 67 135 0.0 1.0 0.00 0.00 0.00 83 1020.7
20260506204007 67 117 1.0 3.0 0.00 0.00 0.00 84 1021.0
20260506203508 67 54 3.0 5.0 0.00 0.00 0.00 84 1020.7
20260506203006 67 189 2.0 4.0 0.00 0.00 0.00 86 1020.8
20260506202507 67 0 3.0 6.0 0.00 0.00 0.00 85 1020.8
20260506202008 67 135 3.0 6.0 0.00 0.00 0.00 84 1020.7
20260506201507 67 90 0.0 0.0 0.00 0.00 0.00 87 1020.9
20260506201007 66 162 4.0 5.0 0.00 0.00 0.00 87 1021.0
20260506200507 65 207 3.0 5.0 0.00 0.00 0.00 90 1021.0
20260506200007 64 225 0.0 0.0 0.00 0.00 0.00 93 1021.0
20260506195507 63 225 0.0 0.0 0.00 0.00 0.00 93 1021.0
20260506195007 63 261 2.0 5.0 0.00 0.00 0.00 93 1021.2
20260506194507 63 225 1.0 4.0 0.00 0.00 0.00 93 1021.3
20260506194006 63 180 2.0 6.0 0.00 0.00 0.00 93 1021.3
20260506193507 63 153 5.0 5.0 0.00 0.00 0.00 93 1021.3
20260506193007 63 117 5.0 6.0 0.00 0.00 0.00 92 1021.3
20260506192507 63 54 5.0 6.0 0.00 0.00 0.00 93 1021.3
20260506192007 63 108 2.0 4.0 0.00 0.00 0.00 93 1021.3
20260506191507 63 135 3.0 6.0 0.00 0.00 0.00 92 1021.2
20260506191007 63 135 5.0 6.0 0.00 0.00 0.00 93 1021.0
20260506190507 63 135 2.0 5.0 0.00 0.00 0.00 93 1021.2
20260506190007 62 117 3.0 5.0 0.00 0.00 0.00 93 1021.3
20260506185507 62 189 4.0 6.0 0.00 0.00 0.00 94 1021.3
20260506185007 62 135 4.0 9.0 0.00 0.00 0.00 94 1021.0
20260506184506 61 135 1.0 2.0 0.00 0.00 0.00 94 1021.3
20260506184007 61 162 5.0 6.0 0.00 0.00 0.00 94 1021.2
20260506183507 61 171 3.0 6.0 0.00 0.00 0.00 94 1021.1
20260506183007 61 153 4.0 7.0 0.00 0.00 0.00 94 1021.0
20260506182507 61 90 3.0 7.0 0.00 0.00 0.00 94 1021.2
20260506182007 61 45 1.0 5.0 0.00 0.00 0.00 94 1021.3
20260506181507 61 0 0.0 1.0 0.00 0.00 0.00 94 1021.3
20260506181007 61 252 3.0 7.0 0.00 0.00 0.00 94 1021.3
20260506180507 60 171 4.0 5.0 0.00 0.00 0.00 94 1021.0
20260506180007 60 162 2.0 5.0 0.00 0.00 0.00 95 1021.2
20260506175507 60 225 1.0 4.0 0.00 0.00 0.00 95 1021.1
20260506175008 60 207 2.0 6.0 0.00 0.00 0.00 95 1021.3
20260506174506 60 153 2.0 5.0 0.00 0.00 0.00 95 1021.3
20260506174007 60 243 2.0 3.0 0.00 0.00 0.00 95 1021.2
20260506173507 60 262 3.0 5.0 0.00 0.00 0.00 94 1021.0
20260506173006 60 234 2.0 5.0 0.00 0.00 0.00 95 1021.0
20260506172508 60 45 1.0 3.0 0.00 0.00 0.00 95 1021.0
20260506172007 60 45 0.0 4.0 0.00 0.00 0.00 95 1021.0
20260506171507 60 153 2.0 5.0 0.00 0.00 0.00 95 1021.0
20260506171007 59 225 1.0 3.0 0.00 0.00 0.00 95 1021.0
20260506170507 59 225 1.0 1.0 0.00 0.00 0.00 95 1021.0
20260506170007 59 225 1.0 2.0 0.00 0.00 0.00 95 1021.0
20260506165508 59 243 3.0 6.0 0.00 0.00 0.00 95 1021.0